EW2192 Weather Reports


Display with metric or nautical units.
time (UTC)temp
F
wind
direction
speed
MPH
gust
MPH
rain 1hr
in
rain 24hr
in
rain mn
in
humidity
%
barometer
mb
20260503003117 61 5 1.0 3.0 0.00 0.00 0.00 42 1009.3
20260503001528 61 5 2.0 4.0 0.00 0.00 0.00 41 1009.4
20260503000133 62 5 2.0 4.0 0.00 0.00 0.00 40 1009.5
20260502234552 61 5 2.0 5.0 0.00 0.00 0.00 40 1009.7
20260502233011 61 5 1.0 4.0 0.00 0.00 0.00 40 1009.9
20260502231605 62 5 1.0 4.0 0.00 0.00 0.00 39 1010.0
20260502230020 62 5 2.0 5.0 0.00 0.00 0.00 37 1010.1
20260502224620 62 5 2.0 4.0 0.00 0.00 0.00 37 1010.2
20260502223036 62 5 2.0 10.0 0.00 0.00 0.00 37 1010.5
20260502221629 62 5 2.0 8.0 0.00 0.00 0.00 38 1010.5
20260502220050 62 5 2.0 5.0 0.00 0.00 0.00 38 1010.7
20260502214537 62 5 2.0 8.0 0.00 0.00 0.00 37 1011.0
20260502213131 62 5 3.0 10.0 0.00 0.00 0.00 35 1011.2
20260502211558 62 5 3.0 8.0 0.00 0.00 0.00 36 1011.4
20260502210017 62 5 2.0 9.0 0.00 0.00 0.00 36 1011.8
20260502204611 64 5 4.0 10.0 0.00 0.00 0.00 32 1011.9
20260502203036 64 5 5.0 10.0 0.00 0.00 0.00 36 1012.3
20260502201619 64 5 4.0 10.0 0.00 0.00 0.00 35 1012.6
20260502200056 63 5 1.0 11.0 0.00 0.00 0.00 34 1012.9
20260502194503 63 5 3.0 12.0 0.00 0.00 0.00 35 1013.1
20260502193103 62 5 3.0 12.0 0.00 0.00 0.00 36 1013.3
20260502191517 61 5 2.0 11.0 0.00 0.00 0.00 35 1013.6
20260502190116 61 5 3.0 12.0 0.00 0.00 0.00 38 1014.0
20260502184538 61 5 2.0 8.0 0.00 0.00 0.00 41 1014.3
20260502183131 60 5 3.0 8.0 0.00 0.00 0.00 37 1014.5
20260502181559 60 5 3.0 9.0 0.00 0.00 0.00 38 1014.6
20260502163055 56 5 1.0 6.0 0.00 0.00 0.00 40 1016.2
20260502161511 55 5 2.0 6.0 0.00 0.00 0.00 40 1016.5
20260502160108 53 5 2.0 9.0 0.00 0.00 0.00 42 1016.7
20260502151538 51 5 2.0 6.0 0.00 0.00 0.00 47 1017.1
20260502150134 49 5 1.0 5.0 0.00 0.00 0.00 53 1017.2
20260502123108 33 5 1.0 3.0 0.00 0.00 0.00 84 1017.7
20260502121524 31 5 0.0 2.0 0.00 0.00 0.00 83 1017.6
20260502120116 30 5 0.0 2.0 0.00 0.00 0.00 82 1017.7
20260502114539 30 5 0.0 1.0 0.00 0.00 0.00 81 1017.7
20260502113125 30 5 0.0 1.0 0.00 0.00 0.00 80 1017.6
20260502111546 30 5 0.0 1.0 0.00 0.00 0.00 79 1017.5
20260502110045 30 5 0.0 1.0 0.00 0.00 0.00 78 1017.5
20260502104628 30 5 0.0 1.0 0.00 0.00 0.00 78 1017.5
20260502103108 31 5 0.0 1.0 0.00 0.00 0.00 78 1017.5
20260502101508 31 5 0.0 1.0 0.00 0.00 0.00 78 1017.4
20260502091533 32 5 0.0 1.0 0.00 0.00 0.00 76 1017.3
20260502090135 32 5 0.0 1.0 0.00 0.00 0.00 76 1017.3
20260502071507 34 5 0.0 1.0 0.00 0.00 0.00 74 1017.5
20260502070106 34 5 0.0 1.0 0.00 0.00 0.00 74 1017.6
20260502064523 34 5 1.0 2.0 0.00 0.00 0.00 73 1017.7
20260502063127 35 5 0.0 2.0 0.00 0.00 0.00 72 1017.7
20260502061528 35 5 0.0 1.0 0.00 0.00 0.00 70 1017.7
20260502060118 36 5 0.0 1.0 0.00 0.00 0.00 71 1017.7
20260502054551 36 5 0.0 1.0 0.00 0.00 0.00 70 1017.7
20260502053133 37 5 0.0 2.0 0.00 0.00 0.00 67 1017.7
20260502051549 37 5 0.0 1.0 0.00 0.00 0.00 66 1017.7
20260502050003 38 5 0.0 1.0 0.00 0.00 0.00 66 1017.6
20260502044606 39 5 0.0 1.0 0.00 0.00 0.00 65 1017.6
20260502043031 40 5 0.0 1.0 0.00 0.00 0.00 62 1017.6
20260502041617 41 5 0.0 2.0 0.00 0.00 0.00 59 1017.7
20260502040048 42 5 1.0 2.0 0.00 0.00 0.00 57 1017.7
20260502034501 43 5 0.0 2.0 0.00 0.00 0.00 56 1017.6
20260502033101 44 5 0.0 2.0 0.00 0.00 0.00 55 1017.8
20260502031519 44 5 0.0 1.0 0.00 0.00 0.00 52 1017.7
20260502030117 45 5 0.0 1.0 0.00 0.00 0.00 52 1017.6
20260502024532 46 5 0.0 1.0 0.00 0.00 0.00 49 1017.6
20260502023131 46 5 0.0 1.0 0.00 0.00 0.00 50 1017.5
20260502021557 47 5 0.0 1.0 0.00 0.00 0.00 48 1017.5
20260502020012 48 5 0.0 1.0 0.00 0.00 0.00 47 1017.4
20260502014614 48 5 0.0 1.0 0.00 0.00 0.00 45 1017.3
20260502013032 49 5 0.0 1.0 0.00 0.00 0.00 42 1017.2
20260502011633 49 5 0.0 2.0 0.00 0.00 0.00 40 1017.0
20260502010059 50 5 0.0 2.0 0.00 0.00 0.00 40 1017.1
20260502004514 50 5 1.0 2.0 0.00 0.00 0.00 39 1017.0